Find Starlink 31328

NORAD ID: 58880 Int'l Des: 2024-020 Owner: SPXS Country: US Constellation: starlink operational
LEOCIRCULAR

Live-Position

3D-Globus wird geladen...

Über Starlink 31328

Beschreibung wird geladen...

Nächste Überflüge

Passes for default location (London). Set your location on the main map for personalized predictions.

Höhenverlauf

Loading altitude history...

Zweizeiliger Elementsatz

1 58880U 24020E 26120.22056205 -.00000333 00000-0 88631-6 0 9992
2 58880 53.1624 67.8525 0001266 86.9930 273.1216 15.30197431126178
Epoch: 30. Apr. 2026 • Age: 9 hours

Aktueller Status

Höhe 488.6 km
Geschwindigkeit 7.62 km/s
Subsatellitenpunkt -38.85°S, 46.47°W
Startdatum 29. Jan. 2024
Alter 2.2 years
Typ internet

Technische Details

Klassifizierung Payload
Masse 730.00 kg
Trockenmasse 700.00 kg
Gesamtmasse 730.00 kg
Länge 0.30 m
Durchmesser 4.10 m
Spannweite 29.00 m
Form Box + pan
Hersteller SPXS
Bus-Typ Starlink V2M
Phasenstatus In Orbit
Besitzer/Staat SPXS/US

Most Searched